Location: Goettingen
(51.5300°N, 9.9433°E)
Time: 08:32:17
(UTC+01:00)

ISS - Pass Details

Date: 08 December 2018
Orbit: 401 x 408 km, 51.6° (Epoch: 12 December)

Event Time Altitude Azimuth Distance (km) Brightness Sun altitude
Rises 17:35:11 0° 281° (W) 2,320 1.1 -12.2°
Reaches altitude 10° 17:37:16 10° 279° (W) 1,459 0.0 -12.5°
Maximum altitude 17:40:31 71° 195° (SSW) 429 -3.7 -12.9°
Enters shadow 17:42:53 17° 113° (ESE) 1,099 -2.1 -13.3°
